Location: Mt. Graham
(32.7020°N, 109.8880°W)
Time: 10:57:29
(UTC-07:00)

NOAA 19 - Visible Passes

Search period start: 28 May 2024 00:00
Search period end: 07 June 2024 00:00
Orbit: 839 x 859 km, 99.0° (Epoch: 28 May)

Date Brightness Start Highest point End Pass type
(mag) Time Alt. Az. Time Alt. Az. Time Alt. Az.
28 May 6.9 19:48:35 10° E 19:51:46 16° ENE 19:54:57 10° NNE visible
28 May 5.6 21:29:18 30° SSW 21:31:51 56° WSW 21:37:13 10° NNW visible
29 May 5.3 21:16:47 30° S 21:19:32 74° WSW 21:25:00 10° NNW visible
30 May 5.1 21:04:16 28° SSE 21:07:14 84° ENE 21:12:43 10° NNW visible
31 May 5.2 20:51:46 25° SSE 20:54:58 64° ENE 21:00:22 10° N visible
31 May 7.6 22:33:43 10° WSW 22:35:56 13° W 22:38:14 10° WNW visible
01 Jun 5.6 20:39:15 20° SE 20:42:42 48° ENE 20:47:56 10° N visible
01 Jun 7.3 22:21:12 14° WSW 22:23:30 17° W 22:27:02 10° NW visible
02 Jun 5.9 20:26:44 16° SE 20:30:28 36° ENE 20:35:26 10° N visible
02 Jun 7.0 22:08:42 17° SW 22:11:06 23° W 22:15:23 10° NW visible
03 Jun 6.3 20:14:13 12° ESE 20:18:15 28° ENE 20:22:50 10° NNE visible
03 Jun 6.6 21:56:11 21° SW 21:58:43 31° W 22:03:30 10° NW visible
04 Jun 6.6 20:02:02 10° ESE 20:06:04 22° ENE 20:10:06 10° NNE visible
04 Jun 6.2 21:43:40 25° SSW 21:46:21 40° W 21:51:29 10° NNW visible
05 Jun 6.9 19:50:35 10° ESE 19:53:54 17° ENE 19:57:12 10° NNE visible
05 Jun 5.7 21:31:10 27° SSW 21:34:00 54° W 21:39:21 10° NNW visible
06 Jun 5.3 21:18:39 27° S 21:21:41 72° WSW 21:27:09 10° NNW visible
